This demonstration page uses our WeatherBlox Daily Observations layout. Learn more.

Left ArrowRight Arrow

41.55636, -103.73856

Hourly Observations for July 2, 2017

Temp ( °F °C ) Dew Point ( °F °C ) Humidity (%) Winds ( mph kmh ) Pressure ( in mb ) Visibility ( mi km ) Precip ( " mm )
12:53 am 00:53 Clear 66 18.9 50 10 56 56 ENE 8 13 29.88 1012 10 16 0.00 0.00
1:53 am 01:53 Clear 63 17.2 50 10 63 63 SSE 5 7 29.89 1012 10 16 0.00 0.00
2:53 am 02:53 Clear 61 16.1 51 10.6 70 70 Calm 29.88 1012 10 16 0.00 0.00
3:53 am 03:53 Clear 61 16.1 51 10.6 70 70 Calm 29.88 1012 10 16 0.00 0.00
4:53 am 04:53 Clear 57 13.9 50 10 78 78 Calm 29.90 1013 10 16 0.00 0.00
5:53 am 05:53 Sunny 57 13.9 52 11.1 83 83 N 6 9 29.91 1013 10 16 0.00 0.00
6:53 am 06:53 Sunny 64 17.8 54 12.2 70 70 Calm 29.91 1013 10 16 0.00 0.00
7:53 am 07:53 Sunny 68 20 55 12.8 63 63 Calm 29.93 1014 10 16 0.00 0.00
8:53 am 08:53 Sunny 71 21.7 56 13.3 59 59 E 5 7 29.94 1014 10 16 0.00 0.00
9:53 am 09:53 Sunny 76 24.4 58 14.4 54 54 VRB 3 6 29.93 1014 10 16 0.00 0.00
10:53 am 10:53 Sunny 80 26.7 60 15.6 51 51 ESE 5 7 29.93 1013 10 16 0.00 0.00
11:53 am 11:53 Sunny 85 29.4 62 16.7 46 46 SSE 9 15 29.91 1013 10 16 0.00 0.00
12:53 pm 12:53 Sunny 88 31.1 59 15 38 38 SE 8 13 29.90 1012 10 16 0.00 0.00
1:53 pm 13:53 Sunny 91 32.8 57 13.9 32 32 ESE 10 17 29.87 1012 10 16 0.00 0.00
2:53 pm 14:53 Sunny 93 33.9 55 12.8 28 28 SE 8 13 29.85 1011 10 16 0.00 0.00
3:53 pm 15:53 Sunny 91 32.8 56 13.3 31 31 E 8 13 29.84 1010 10 16 0.00 0.00
4:53 pm 16:53 Sunny 92 33.3 56 13.3 30 30 SE 18 30 29.80 1009 10 16 0.00 0.00
5:53 pm 17:53 Sunny 89 31.7 54 12.2 30 30 ESE 12 19 29.80 1009 10 16 0.00 0.00
6:53 pm 18:53 Sunny 84 28.9 51 10.6 32 32 SE 16 26 29.82 1010 10 16 0.00 0.00
7:53 pm 19:53 Sunny 77 25 46 7.8 33 33 E 20 31 29.90 1012 10 16 0.00 0.00
8:53 pm 20:53 Clear 73 22.8 48 8.9 41 41 SE 16 26 29.90 1013 10 16 0.00 0.00
9:01 pm 21:01 Mostly Clear with Nearby Thunderstorms 73 22.8 48 8.9 41 41 undefined N/A 29.80 1009 10 16 0.00 0.00
9:53 pm 21:53 Mostly Cloudy with Light Rain 73 22.8 50 10 44 44 E 14 22 29.92 1013 10 16 0.00 0.03
10:09 pm 22:09 Mostly Cloudy with Light Rain 72 22.2 51 10.6 48 48 SE 13 20 29.85 1011 10 16 0.00 0.03
10:22 pm 22:22 Mostly Clear 73 23 50 10 44 44 SE 20 31 29.83 1010 10 16 0.00 0.00
10:53 pm 22:53 Clear 72 22.2 49 9.4 44 44 S 24 39 29.91 1013 10 16 0.00 0.03
11:53 pm 23:53 Clear 70 21.1 48 8.9 46 46 SE 16 26 29.91 1013 10 16 0.00 0.00

Powered by AerisWeather